Regional Weather Roundup
Issued by NWS

Home | Current Version | Previous Version | Text Only | Print | Product List | Glossary On
Versions: 1 2 3 4 5 6 7 8 9 10 11 12 13 14 15 16 17 18 19 20 21 22 23 24 25 26 27 28 29 30 31 32 33 34 35 36 37 38 39 40 41 42 43 44 45 46 47 48 49 50
000
ASUS45 KSLC 310710
RWRUT

UTAH REGIONAL WEATHER ROUNDUP
NATIONAL WEATHER SERVICE SALT LAKE CITY UT
100 AM MDT SUN JUL 31 2016

UTZ001>011-023>025-310800-

NORTHERN UTAH

CITY           SKY/WX    TMP DP  RH WIND       PRES   REMARKS
BRIGHAM CITY     N/A     82  44  26 SW7       29.94R
HILL AFB       PTCLDY    78  52  40 S17       29.99R
LOGAN          CLOUDY    71  52  50 N8        29.94R
OGDEN          MOCLDY    80  51  36 S14       29.95R
PROVO AIRPORT  MOCLDY    72  52  49 SE7       30.02F
SALT LAKE CITY PTCLDY    81  52  36 S15       29.95S
VERNAL         CLOUDY    76  46  34 SW8       30.01S
WENDOVER       MOCLDY    79  46  31 CALM      29.96S
HEBER CITY     CLOUDY    68  55  64 CALM      30.08F
WEST JORDAN    CLEAR     75  55  50 S15       30.00

$$

UTZ012>022-026-027-310800-

SOUTHERN/CENTRAL UTAH

CITY           SKY/WX    TMP DP  RH WIND       PRES   REMARKS
BLANDING       CLOUDY    72  52  50 S6        30.22S
BRYCE CANYON   CLOUDY    55  51  86 S13G20    30.29F
CEDAR CITY     CLOUDY    67  56  67 S6        30.11R
DELTA          MOCLDY    68  50  52 SW8       30.02F
MILFORD        MOCLDY    65  57  75 SE8       30.06R
MOAB/CYNLANDS  LGT RAIN  75  59  57 SW8       29.95S
PRICE          CLOUDY    75  44  33 W3        30.05F
ST GEORGE      CLOUDY    72  61  68 NE5       30.02R

$$

REGIONAL REPORTS     COLORADO/ARIZONA

CITY           SKY/WX    TMP DP  RH WIND       PRES   REMARKS
CRAIG, CO      CLOUDY    59  45  59 CALM      30.10S
GRAND JUNCTION CLOUDY    79  41  25 NE8       29.98R
RIFLE          CLEAR     68  38  33 S7        30.04R
MONTROSE       CLOUDY    73  42  32 SE6       30.09R
CORTEZ         LGT RAIN  65  57  75 S12       30.19R
PAGE, AZ       LGT RAIN  78  53  41 W12G23    30.09R
GRAND CANYON   CLOUDY    68  50  52 VRB3      30.26R
KINGMAN        CLEAR     76  58  53 SE9       29.98S
FLAGSTAFF      CLOUDY    58  56  93 CALM      30.25S

$$

REGIONAL REPORTS    NEVADA/IDAHO/WYOMING

CITY           SKY/WX    TMP DP  RH WIND       PRES   REMARKS
LAS VEGAS, NV  PTCLDY    95  53  24 S6        29.77R HX  92
ELY            MOCLDY    65  44  46 SE8       30.13R
ELKO           CLEAR     76  42  29 W15       29.98R
POCATELLO, ID  CLOUDY    74  44  34 SW8       29.91R
BURLEY         MOCLDY    73  49  42 SW14      29.88R
EVANSTON, WY   CLOUDY    65  41  41 SW13      30.17S
ROCK SPRINGS   CLOUDY    65  42  43 CALM      30.12S
KEMMERER         N/A    N/A N/A N/A NW6       30.16F

$$



USA.gov is the U.S. government's official web portal to all federal, state and local government web resources and services.